Regional Weather Roundup
Issued by NWS

Home | Current Version | Previous Version | Text Only | Print | Product List | Glossary Off
Versions: 1 2 3 4 5 6 7 8 9 10 11 12 13 14 15 16 17 18 19 20 21 22 23 24 25 26 27 28 29 30 31 32 33 34 35 36 37 38 39 40 41 42 43 44 45 46 47 48 49 50

020
ASUS43 KMKX 100411
RWRWI

WISCONSIN REGIONAL WEATHER ROUNDUP
NATIONAL WEATHER SERVICE MILWAUKEE/SULLIVAN WI
1000 PM CST TUE FEB 09 2016

NOTE: "FAIR" INDICATES FEW OR NO CLOUDS BELOW 12,000 FEET WITH NO
SIGNIFICANT WEATHER AND/OR OBSTRUCTIONS TO VISIBILITY.

WIZ001-002-006>008-014>016-023>028-100500-
NORTHWEST WISCONSIN

CITY           SKY/WX    TMP DP  RH WIND       PRES   REMARKS
SUPERIOR ARPT  PTCLDY     4  -5  66 N6        30.16S WCI  -7
ASHLAND        LGT SNOW   7   2  80 N13       30.09S WCI  -9
HAYWARD        CLOUDY     5  -4  66 VRB5      30.06S WCI  -4
SIREN          CLEAR      4  -6  63 NW5       30.12R WCI  -5
CUMBERLAND     CLEAR      3  -8  60 N10       30.06S WCI -12
RICE LAKE      CLEAR      6  -6  58 NW8       30.09R WCI  -7
CHETEK         CLEAR      4  -5  63 MISG      30.07S
LADYSMITH      CLOUDY     9   0  69 N12       30.03S WCI  -6
EAU CLAIRE     CLEAR      7  -7  52 NW10      30.07S WCI  -8
MENOMONIE      CLEAR      9  -5  53 NW12      30.09S WCI  -6
NEW RICHMOND   CLEAR      5  -5  64 NW7       30.11S WCI  -7
OSCEOLA        CLEAR      8  -3  61 NW10      30.16R WCI  -7
$$

WIZ003>005-009-010-017-018-100500-
NORTH CENTRAL WISCONSIN

CITY           SKY/WX    TMP DP  RH WIND       PRES   REMARKS
MANITOWISH WTR LGT SNOW   7   2  82 N8        29.93S WCI  -6
ARBOR VITAE    CLOUDY     9   3  75 N16G22    29.91F HAZE    WCI  -8
WOODRUFF       CLOUDY     9   3  75 N16G22    29.91F HAZE    WCI  -8
RHINELANDER    LGT SNOW   8   0  69 N7G20     29.90F WCI  -3
EAGLE RIVER    CLOUDY     8  -1  67 N14G20    29.89F WCI  -9
LAND O LAKES   LGT SNOW   8   2  79 N14       29.90F WCI  -9
PHILLIPS       CLOUDY     6   0  75 NW8       29.96S WCI  -7
TOMAHAWK       CLOUDY     8   1  76 NW8       29.94S WCI  -5
MEDFORD        CLOUDY     8   0  69 N13       29.95S WCI  -8
MERRILL        CLOUDY     9   1  70 NW8       29.95S WCI  -3
$$

WIZ029-030-035-036-043>047-100500-
CENTRAL WISCONSIN

CITY           SKY/WX    TMP DP  RH WIND       PRES   REMARKS
WAUSAU         CLOUDY    11   0  61 N12       29.94S WCI  -3
MOSINEE        CLOUDY     9   1  72 NW13      29.96S WCI  -7
MARSHFIELD     CLOUDY    10  -3  55 N14       29.96F WCI  -6
STEVENS POINT  CLOUDY     9  -1  64 NW8G16    29.97F WCI  -4
WAUPACA        CLOUDY    14   2  58 NW9G17    29.98R WCI   2
WAUTOMA        CLOUDY    12  -1  56 N12G23    29.99S WCI  -2
WISC RAPIDS    CLOUDY    10  -1  61 N8        30.00F WCI  -2
CAMP DOUGLAS   FLURRIES   3   0  85 W6        30.02S WCI  -8
$$

WIZ011>013-019>022-031-037>040-048>050-100500-
NORTHEAST WISCONSIN

CITY           SKY/WX    TMP DP  RH WIND       PRES   REMARKS
ANTIGO         CLOUDY     8   0  69 N13       29.90S WCI  -7
SHAWANO        CLOUDY    15   1  53 NW9G21    29.95S WCI   3
OCONTO         CLOUDY    13   2  61 NW8G18    29.93R WCI   2
STURGEON BAY   CLOUDY    12   3  67 NW15G22   29.90S WCI  -4
GREEN BAY      CLOUDY    13   3  64 NW13      29.93F WCI  -2
MANITOWOC      FLURRIES  13   8  81 NW17      29.91F WCI  -4
APPLETON       MOCLDY    12  -2  52 NW14      29.92S WCI  -3
CLINTONVILLE   CLOUDY    14   0  52 N9        29.95S WCI   2
OSHKOSH        CLOUDY    13   3  64 NW14G26   29.94S WCI  -2
$$

WIZ032>034-041-042-053>061-100500-
SOUTHWEST WISCONSIN

CITY           SKY/WX    TMP DP  RH WIND       PRES   REMARKS
LA CROSSE      CLEAR      2  -6  69 NW8       30.08S WCI -12
SPARTA         CLEAR     -5  -7  88 CALM      30.06S
VIROQUA        CLEAR      4  -4  67 NW6       30.00S WCI  -7
BOSCOBEL       CLEAR      9  -1  64 CALM      30.07S
PRAIRIE DU CHI CLEAR      9  -3  58 NW7       30.08S WCI  -2
PLATTEVILLE    CLEAR      8   0  69 NW9       30.02F WCI  -5
$$

WIZ056-057-062-063-064-067-068-100500-
SOUTH CENTRAL WISCONSIN

CITY           SKY/WX    TMP DP  RH WIND       PRES   REMARKS
REEDSBURG      CLEAR      8  -1  66 NW7       30.01S WCI  -3
BARABOO/DELLS  CLOUDY    10   0  63 NW10      29.99F WCI  -4
LONE ROCK      CLEAR     10  -2  58 NW9       30.05R WCI  -3
MINERAL POINT  CLEAR     10   0  61 NW8       30.00S WCI  -1
MADISON        PTCLDY    10   0  63 NW9       29.98R WCI  -3
MIDDLETON      CLOUDY    12   2  64 NW9       30.00R WCI  -1
WATERTOWN      MOCLDY    12   4  68 NW12G20   29.95R WCI  -2
MONROE         CLEAR     10   1  67 NW13G18   29.98R WCI  -5
JANESVILLE     CLOUDY    16   3  57 NW14G21   29.98R WCI   1
$$

WIZ051-052-058>065-066-070>072-100500-
SOUTHEAST WISCONSIN

CITY           SKY/WX    TMP DP  RH WIND       PRES   REMARKS
MILWAUKEE      LGT SNOW  15   9  76 NW14      29.92S WCI   0
WAUKESHA       CLOUDY    12   5  73 NW13G18   29.93S WCI  -3
MILWAUKEE/TIMM FLURRIES  14   9  79 NW14      29.93S WCI  -1
RACINE         FLURRIES  15   8  73 NW10      29.93S WCI   2
BURLINGTON     MOCLDY    12   4  69 NW15G21   29.94S WCI  -4
KENOSHA        CLOUDY    14   6  70 NW14      29.92S WCI  -1
FOND DU LAC    CLOUDY    13   5  70 NW13      29.94S WCI  -2
SHEBOYGAN      FLURRIES  13   5  70 NW15G24   29.91S WCI  -3
WEST BEND      CLOUDY    14   5  67 NW14G21   29.91S WCI  -1
JUNEAU         MOCLDY    10   3  71 NW12      29.95R WCI  -4
$$

LSZ147-162-100500-
LAKE SUPERIOR

STATION/POSITION TIME  TEMP    WIND        PRES    WAVE
                       AIR SEA DIR/SP/G            HT/PER
                 (UTC) (F)     (DEG/KT/KT) (MB)    (FT/S)
DEVILS ISLAND    0400    7     360/ 21/ 24 1021.1R
PORT WING        0300    9     340/ 15/ 24 1020.3
SAXON HARBOR     0340   11                 1017.9S
$$

LMZ867-665-643>646-100500-
LAKE MICHIGAN

STATION/POSITION TIME  TEMP    WIND        PRES    WAVE
                       AIR SEA DIR/SP/G            HT/PER
                 (UTC) (F)     (DEG/KT/KT) (MB)    (FT/S)
CHAMBERS ISLAND  0300   13     300/ 13/ 20 1012.2S
ALGOMA LAKESHORE 0311          320/ 11/ 17   N/A
KEWAUNEE LAKESHO 0300   13     360/ 13/ 18 1011.9F
SHEBOYGAN LAKESH 0400   14     320/ 15/ 17 1014.4S
PORT WASHINGTON  0300   17     320/  8/ 15 1014.6
MILWAUKEE LAKESH 0310   17     320/ 10/ 14   N/A
KENOSHA   LAKESH 0400   15     300/ 13/ 20 1013.2S
$$

TC  - TEMPERATURE IN CELSIUS
VSB - VISIBILITY IN STATUTE MILES
WCI - WIND CHILL INDEX
HX  - HEAT INDEX





USA.gov is the U.S. government's official web portal to all federal, state and local government web resources and services.